Presure
178 163 156 172 154 157 159 160 169 176 168 165 162 165 167 173 109 91 172 82 171 154 160 169 85 91 153 143 140 159 166 157 170
178 177 143 167 162 170 178 171 172 176 167 144 163 157 106 160 170 77 155 143 168 150 121 151 89 107 78 163 155 162 165 160 158
95 184 144 165 161 89 112 118 170 142 155 138 151 132 125 141 157 160 171 161 165 142 176 150 166 170 88 164 154 151 193 141 153
152 156 172 161 108 103 93 161 106 127 104 104 174 177 174 166 101 87 75 121 114 156 142 105 107 129 163 196 164 171 174 157 175
85 89 130 92 174 130 146 178 131 115 93 164 163 164 179 175 162 117 124 170 161 122 133 145 184 165 191 179 144 142 154 119 155
127 194 123 124 133 148 129 133 166 170 127 125 119 103 132 150 177 162 136 125 145 161 119 141 177 174 169 152 156 142 142 141 151
119 128 126 113 118 144 117 118 119 120 131 149 123 132 117 118 127 132 123 140 144 172 157 131 154 154 161 156 206 150 143 141 146
146 124 130 128 132 116 118 125 156 134 176 134 124 144 129 128 120 132 125 118 128 126 103 163 175 136 128 193 133 163 149 109 123
151 140 142 119 130 132 113 128 125 134 135 143 141 125 130 128 129 133 135 137 137 140 142 148 148 172 140 142 128 144 106 152 178
116 137 152 157 147 139 124 143 138 138 124 120 129 118 126 126 132 125 112 161 145 154 168 172 145 147 144 141 149 145 118 127 125
94 154 163 139 140 155 144 149 149 129 139 101 134 143 155 125 117 139 136 129 131 103 170 163 161 176 173 150 121 158 137 141 134
144 157 136 164 147 149 100 146 150 157 142 117 141 129 123 124 135 130 117 139 128 182 193 188 157 146 148 166 185 127 141 137 156
135 160 131 196 168 165 151 153 159 136 138 121 143 128 118 138 128 115 125 131 136 179 190 157 172 182 177 141 145 134 118 147 166
142 191 135 148 158 180 139 181 110 143 145 144 136 109 126 125 125 117 131 124 135 133 150 160 153 171 160 167 139 149 132 178 135
149 156 139 144 197 149 181 134 125 140 135 120 125 161 136 134 126 115 135 128 130 130 126 145 167 176 158 174 176 153 200 150 163
139 163 141 133 134 141 120 161 117 139 125 115 176 120 123 129 128 134 126 139 126 140 142 192 158 188 159 181 152 144 191 204 168
139 170 144 130 158 140 117 116 123 178 131 120 135 175 121 122 138 129 133 131 136 151 126 143 158 179 170 161 170 181 135 187 154
125 146 193 162 136 118 151 159 144 149 123 124 133 126 117 124 140 141 134 127 163 140 139 164 182 153 176 169 176 156 162 137 155
136 144 188 160 149 217 139 150 150 158 128 127 140 125 144 137 136 134 152 174 139 132 136 151 165 164 160 177 169 179 165 187 176
197 138 171 126 127 232 113 163 135 121 127 131 132 126 121 173 131 144 133 162 159 149 137 158 141 153 165 175 182 176 201 175 141
Wind_Speed
37 34 30 34 31 30 32 33 36 36 36 36 34 35 37 38 30 30 31 17 31 33 35 34 32 37 39 44 45 42 42 45 39
38 39 28 34 33 36 36 36 37 37 35 32 35 32 27 36 36 24 33 31 33 35 42 36 36 37 23 40 42 40 40 44 44
17 40 33 38 35 25 27 27 35 32 32 35 30 34 38 35 36 36 35 36 37 34 33 36 33 32 32 39 40 42 30 38 45
36 37 38 36 29 28 28 37 31 34 30 30 39 41 41 39 44 37 18 44 37 34 41 35 35 34 33 30 36 29 30 35 36
20 22 33 28 37 29 30 39 21 27 37 42 41 40 41 42 38 29 36 39 32 44 44 31 40 27 41 26 41 48 41 42 46
23 44 23 24 27 30 23 24 37 42 25 26 31 34 26 29 44 36 32 37 30 48 50 42 41 41 24 39 35 49 52 54 48
26 26 27 33 30 34 30 28 28 28 26 33 31 30 39 38 33 32 35 34 40 35 24 33 25 28 29 39 39 42 52 46 53
41 28 28 31 31 36 34 33 40 35 40 31 31 34 31 33 38 37 37 43 41 43 50 30 38 42 52 40 53 35 49 39 50
43 40 35 34 37 36 39 35 36 37 35 37 36 32 33 33 36 37 39 38 41 41 44 38 33 28 44 39 41 47 38 50 40
30 36 42 44 43 41 40 44 41 41 31 35 33 38 36 35 37 39 48 42 42 40 42 37 39 34 38 43 48 43 52 41 49
26 46 48 40 41 48 46 49 50 37 42 41 40 42 40 33 42 42 42 42 43 56 33 34 33 49 42 45 64 41 59 57 55
31 44 41 52 43 46 45 46 51 56 54 49 44 34 32 35 41 39 49 43 44 49 49 51 39 47 41 45 48 55 57 69 48
49 52 43 57 51 51 51 55 56 44 54 41 45 53 47 39 37 51 47 46 47 50 53 47 40 42 43 55 57 72 60 54 45
53 57 41 42 48 59 48 62 47 53 49 49 43 58 42 37 37 51 43 50 47 49 44 37 44 49 45 45 68 61 75 49 69
44 52 41 42 60 43 59 48 48 49 43 43 41 65 63 43 39 55 44 45 50 56 63 52 47 49 48 48 48 56 55 62 49
40 56 43 47 42 41 50 56 51 48 42 55 67 49 48 42 43 46 50 44 55 46 63 55 53 56 49 53 55 69 53 50 44
40 60 55 51 61 41 54 55 50 67 48 51 52 70 52 50 50 46 48 48 52 57 68 60 58 57 55 51 56 58 80 51 64
50 45 69 60 48 55 55 61 60 65 49 54 52 48 65 55 54 48 53 60 56 55 62 56 57 59 60 60 63 66 58 81 64
44 45 69 63 53 72 58 64 59 63 65 54 60 55 60 53 54 54 57 67 55 64 64 60 62 63 59 63 60 62 55 58 58
65 44 58 56 56 71 68 71 53 64 58 58 61 63 66 78 58 53 60 58 57 61 70 63 72 65 64 70 68 59 59 57 81
Wind_Direction
264 272 276 272 280 279 282 285 287 287 288 291 291 294 296 295 312 315 304 342 308 312 313 313 339 338 308 311 316 317 317 317 324
262 264 281 275 280 278 275 280 284 286 288 294 292 295 304 300 300 331 309 310 308 308 316 311 336 330 334 312 312 319 315 313 318
280 267 281 279 282 305 300 299 283 293 294 297 299 300 305 305 303 305 303 309 310 305 309 309 313 315 335 309 309 310 332 324 318
272 275 274 280 290 294 299 287 297 297 305 304 290 293 296 301 311 311 316 307 314 305 312 320 326 326 307 325 318 318 328 327 317
271 278 279 286 274 295 304 274 307 301 302 293 297 301 292 295 301 314 302 310 316 310 310 303 316 308 321 314 312 309 313 324 313
290 260 282 291 292 290 299 294 283 283 307 306 302 304 314 314 295 304 307 303 306 316 307 312 315 313 313 313 298 309 310 313 311
277 291 288 283 283 281 286 288 292 294 305 292 303 310 301 302 308 312 306 315 301 301 325 318 313 307 300 304 312 304 306 307 308
291 283 291 291 292 284 285 296 286 302 278 307 301 305 304 307 304 309 307 300 304 306 313 316 313 305 303 310 306 306 303 322 325
282 286 279 279 292 290 285 294 290 299 299 302 303 301 307 306 309 314 313 312 311 305 302 304 300 319 301 300 312 302 313 298 311
281 284 280 279 285 290 284 292 294 294 288 292 298 295 303 304 311 308 300 305 305 304 299 308 303 293 292 294 300 292 318 318 324
278 272 273 281 283 277 287 288 287 285 292 292 297 298 288 302 299 311 312 305 305 308 300 305 299 296 304 288 309 292 291 304 314
279 276 275 273 280 277 288 287 285 283 286 289 294 297 292 299 305 309 298 308 298 292 284 292 298 295 283 296 299 310 285 294 292
269 278 283 266 275 274 274 280 278 284 284 281 288 291 293 295 300 293 302 303 303 290 287 288 301 300 298 289 281 292 318 284 297
276 266 275 280 282 270 276 268 287 283 283 283 290 288 291 293 293 292 300 297 299 298 300 301 294 297 294 290 282 292 300 298 309
279 276 273 279 267 282 268 276 282 278 281 278 285 284 286 293 294 290 296 290 293 289 292 294 294 297 288 300 304 275 304 279 294
281 268 276 272 268 278 273 280 278 278 278 279 275 281 282 296 294 296 290 290 284 288 286 291 291 300 285 309 275 277 305 299 294
281 268 270 274 281 272 273 275 272 269 275 274 288 277 282 286 292 290 290 284 286 281 285 284 291 299 293 289 305 308 291 294 296
274 287 264 276 272 268 288 285 278 272 271 275 285 278 279 285 288 288 283 281 286 277 280 298 296 284 305 301 301 296 289 288 281
282 280 259 275 279 252 268 279 274 274 274 277 282 275 287 284 287 283 282 288 276 278 274 288 290 295 296 297 295 300 289 306 299
266 274 270 270 271 242 270 274 281 271 275 279 277 273 273 281 280 283 279 289 288 272 274 287 279 282 290 299 301 291 306 297 293